Current Weather Conditions: station ENQR

sailwx.info

See reports from other nearby stations

no recent reports received from weather station ID ENQR

Tides Pressure Air temp Water temp Dewpoint Dewpoint depression Visibility Wind speed Wind direction Waves Ship positions
date/time (UTC)wind fromknots sea level pressurealtimeterstation pressurevisibilityair tempwater tempwave heightnotes
2017-Mar-24 03:20 230 33 5.4 7.0
2017-Mar-24 02:50 230 32 5.4 7.0
2017-Mar-24 02:20 240 31 5.4 7.0
2017-Mar-24 01:50 240 29 5.4 7.0
2017-Mar-24 01:20 240 29 5.4 7.0
2017-Mar-24 00:50 240 29 5.4 7.0
2017-Mar-24 00:20 240 32 5.4 7.0
2017-Mar-23 23:50 240 27 5.4 7.0
2017-Mar-23 23:20 240 27 5.4 7.0
2017-Mar-23 22:50 250 28 5.4 7.0
2017-Mar-23 22:20 250 28 5.4 7.0
2017-Mar-23 21:50 250 29 5.4 7.0
2017-Mar-23 21:20 250 27 5.4 7.0
2017-Mar-23 20:50 240 15 5.4 6.0
2017-Mar-23 20:20 250 14 5.4 5.0
2017-Mar-23 19:50 270 19 5.4 5.0
2017-Mar-23 19:20 250 14 5.4 6.0
2017-Mar-23 18:50 280 13 5.4 5.0
2017-Mar-23 18:20 250 15 5.4 6.0
2017-Mar-23 17:50 260 11 5.4 6.0
2017-Mar-23 17:20 250 11 5.4 6.0
2017-Mar-23 16:50 250 9 5.4 5.0
2017-Mar-23 16:20 250 11 5.4 5.0
2017-Mar-23 15:50 240 6 5.4 5.0
2017-Mar-23 15:20 190 6 5.4 5.0
2017-Mar-23 14:50 160 8 5.4 5.0
2017-Mar-23 14:20 160 8 5.4 5.0
2017-Mar-23 13:50 150 7 5.4 5.0
2017-Mar-23 13:20 150 7 5.4 6.0
2017-Mar-23 12:50 170 6 5.4 5.0
2017-Mar-23 12:20 150 5 5.4 6.0
2017-Mar-23 11:50 190 2 5.4 5.0
2017-Mar-23 11:20 5.4 5.0
2017-Mar-23 10:50 200 0 5.4 5.0
2017-Mar-23 10:20 260 2 5.4 4.0
2017-Mar-23 09:50 250 0 5.4 5.0
2017-Mar-23 09:20 5.4 4.0
2017-Mar-23 08:50 010 2 5.4 4.0
2017-Mar-23 08:20 360 5 5.4 3.0
2017-Mar-23 07:50 350 6 5.4 3.0
2017-Mar-23 07:20 360 8 5.4 3.0
2017-Mar-23 06:50 350 9 5.4 3.0
2017-Mar-23 06:20 320 11 5.4 4.0
2017-Mar-23 05:50 330 13 5.4 4.0
2017-Mar-23 05:20 340 13 5.4 4.0
2017-Mar-23 04:50 330 17 5.4 4.0
2017-Mar-23 04:20 330 18 5.4 4.0
2017-Mar-23 03:50 310 19 5.4 5.0
2017-Mar-23 03:20 310 18 5.4 4.0
2017-Mar-23 02:50 320 20 5.4 4.0
2017-Mar-23 02:20 270 26 2.1 4.0
2017-Mar-23 01:50 270 29 1.9 3.0
2017-Mar-23 01:20 240 27 5.4 5.0
2017-Mar-23 00:50 240 26 5.4 5.0
2017-Mar-23 00:20 250 25 5.4 4.0
2017-Mar-22 23:50 250 24 5.4 4.0
2017-Mar-22 23:20 250 22 5.4 4.0
2017-Mar-22 22:50 260 20 5.4 4.0
2017-Mar-22 22:20 250 18 5.4 4.0
2017-Mar-22 21:50 260 18 5.4 3.0
2017-Mar-22 21:20 250 14 5.4 3.0
2017-Mar-22 20:50 260 14 5.4 3.0
2017-Mar-22 20:20 280 13 5.4 3.0
2017-Mar-22 19:50 280 13 5.4 3.0
2017-Mar-22 19:20 290 13 5.4 3.0
2017-Mar-22 18:50 320 13 5.4 3.0
2017-Mar-22 18:20 320 13 5.4 3.0
2017-Mar-22 17:50 330 17 5.4 3.0
2017-Mar-22 17:20 330 17 5.4 3.0
2017-Mar-22 16:50 330 17 5.4 3.0
2017-Mar-22 16:20 280 14 5.4 3.0
2017-Mar-22 15:50 360 19 5.4 2.0
2017-Mar-22 15:20 320 20 5.4 3.0
2017-Mar-22 14:50 320 21 5.4 3.0
2017-Mar-22 14:20 320 20 5.4 3.0
2017-Mar-22 13:50 310 18 5.4 3.0
2017-Mar-22 13:20 320 20 5.4 3.0
2017-Mar-22 12:50 310 24 5.4 2.0
2017-Mar-22 12:20 310 20 5.4 3.0
2017-Mar-22 11:50 330 25 5.4 2.0
2017-Mar-22 11:20 330 25 5.4 3.0
2017-Mar-22 10:50 330 24 5.4 3.0
2017-Mar-22 10:20 340 20 5.4 2.0
2017-Mar-22 09:50 320 22 5.4 3.0
2017-Mar-22 09:20 360 21 5.4 1.0
2017-Mar-22 08:50 340 22 5.4 2.0
2017-Mar-22 08:20 340 26 5.4 3.0
2017-Mar-22 07:50 330 27 5.4 3.0
2017-Mar-22 07:20 330 26 5.4 3.0
2017-Mar-22 06:50 350 20 5.4 3.0
2017-Mar-22 06:20 0.9 1.0
2017-Mar-22 05:50 340 29 5.4 3.0
2017-Mar-22 05:20 010 21 5.4 2.0
2017-Mar-22 04:50 340 22 5.4 4.0
2017-Mar-22 04:20 340 25 5.4 4.0